Regional Weather Roundup
Issued by NWS Cleveland, OH

Home | Current Version | Previous Version | Graphics & Text | Print | Product List | Glossary On
Versions: 1 2 3 4 5 6 7 8 9 10 11 12 13 14 15 16 17 18 19 20 21 22 23 24 25 26 27 28 29 30 31 32 33 34 35 36 37 38 39 40 41 42 43 44 45 46 47 48 49 50
667
ASUS41 KCLE 142102
RWRCLE
OHIO REGIONAL WEATHER ROUNDUP
NATIONAL WEATHER SERVICE CLEVELAND, OH
400 PM EST SUN FEB 14 2016

NOTE: "FAIR" INDICATES FEW OR NO CLOUDS BELOW 12,000 FEET WITH NO
SIGNIFICANT WEATHER AND/OR OBSTRUCTIONS TO VISIBILITY.

OHZ001>008-015>018-024>027-034-035-043-044-142200-
   NORTHWEST OHIO

CITY           SKY/WX    TMP DP  RH WIND       PRES   REMARKS
DEFIANCE       CLOUDY    21   5  50 E10       30.27F WCI  10
FINDLAY        CLOUDY    20   5  52 SE12      30.26F WCI   8
TOLEDO EXPRESS CLOUDY    18   5  57 VRB7      30.30F WCI   9
TOLEDO EXEC    CLOUDY    20   4  50 E9        30.31F WCI   9
LIMA           CLOUDY    18   5  57 S13       30.27R WCI   5
$$

OHZ009>014-019>023-028>033-038-089-142200-
   NORTHEAST OHIO

CITY           SKY/WX    TMP DP  RH WIND       PRES   REMARKS
CLE-HOPKINS    CLOUDY    17   0  47 SE8       30.35F WCI   7
CLE-LAKEFRONT  CLOUDY    19   1  45 SE10      30.35F WCI   7
CUY CO. ARPT   CLOUDY    30   1  29 SE12      30.34R WCI  21
LORAIN-ELYRIA  CLOUDY    16   0  49 S12       30.33F WCI   3
ASHTABULA      CLOUDY    15  -1  49 S6        30.37F WCI   6
AKRON-CANTON   CLOUDY    17  -1  45 SE13      30.29F WCI   4
WOOSTER        CLOUDY    16   3  56 S7        30.30F WCI   6
MANSFIELD      CLOUDY    17   4  56 E12       30.25F WCI   4
YOUNGSTOWN     CLOUDY    16   0  49 SE10      30.33F WCI   4
$$

OHZ042-051>053-060>062-070>072-077>081-142200-
  SOUTHWEST OHIO

CITY           SKY/WX    TMP DP  RH WIND       PRES   REMARKS
CINC-COVINGTON HVY SNOW  18  14  84 E14       30.17F VSB 1/4 WCI   4
CINC-LUNKEN    SNOW      19  16  88 E6        30.25F VSB 1/2 WCI  11
HAMILTON       SNOW      19  15  84 E12       30.22F VSB 1/4 WCI   7
DAYTON         SNOW      15  11  83 E15       30.21F VSB 1/2 WCI   0
WRIGHT-PAT AFB SNOW      16  11  79 E13       30.22F VSB 1/2 WCI   2
DAYTON GENERAL SNOW      16  11  80 E12       30.19F VSB 1/2 WCI   3
WILMINGTON     SNOW      17  10  74 E12       30.21F VSB 1/2 WCI   4
$$

OHZ036-037-039>041-045>050-054>059-063>069-073>076-082>088-142200-
  CENTRAL AND SOUTHEAST OHIO

CITY           SKY/WX    TMP DP  RH WIND       PRES   REMARKS
COLUMBUS       CLOUDY    18   2  49 SE12      30.30R WCI   5
OSU AIRPORT    CLOUDY    18   4  54 SE10      30.29R WCI   6
BOLTON FIELD   CLOUDY    19   5  53 SE8       30.30R WCI   9
RICKENBACK AFB NOT AVBL
NEWARK         CLOUDY    20   3  48 E8        30.30R WCI  10
MARION         CLOUDY    19   3  49 SE14      30.28S WCI   6
LANCASTER      CLOUDY    20   4  50 E9        30.30R WCI   9
ZANESVILLE     CLOUDY    21   4  47 E9        30.30F WCI  11
NEW PHILLY     CLOUDY    19  32 100 E13       30.32F WCI   6
$$




USA.gov is the U.S. government's official web portal to all federal, state and local government web resources and services.